Regional Weather Roundup
Issued by NWS

Home | Current Version | Previous Version | Graphics & Text | Print | Product List | Glossary On
Versions: 1 2 3 4 5 6 7 8 9 10 11 12 13 14 15 16 17 18 19 20 21 22 23 24 25 26 27 28 29 30 31 32 33 34 35 36 37 38 39 40 41 42 43 44 45 46 47 48 49 50
000
ASUS43 KLSX 030910
RWRMO

WEATHER SUMMARY FOR MISSOURI
NATIONAL WEATHER SERVICE SPRINGFIELD MO
400 AM CDT THU SEP 03 2015

NOTE: "FAIR" INDICATES FEW OR NO CLOUDS BELOW 12,000 FEET WITH NO
       SIGNIFICANT WEATHER AND/OR OBSTRUCTIONS TO VISIBILITY.
       CURRENT SKY AND/OR WEATHER CONDITIONS ARE NOT AVAILABLE FOR
       CHILLICOTHE AND FARMINGTON.

MOZ001>031-035>038-043-044-053-054-031000-
...NORTHERN AND WESTERN MISSOURI...

CITY           SKY/WX    TMP DP  RH WIND       PRES   REMARKS
KANSAS CTY INT PTCLDY    73  68  84 S9        29.93S
KANSAS C DTWN  PTCLDY    76  68  76 S8        29.92S
LEE`S SUMMIT   PTCLDY    75  67  76 S7        29.96R
ST JOSEPH      PTCLDY    72  69  90 S8        29.91S
CHILLICOTHE      N/A     71  68  90 CALM      29.95S
KIRKSVILLE     PTCLDY    73  67  81 SW5       29.96S

$$
MOZ066>068-077>081-088>096-101>105-031000-
...SOUTHWEST MISSOURI...

CITY           SKY/WX    TMP DP  RH WIND       PRES   REMARKS
SPRINGFIELD    CLEAR     70  65  84 S6        30.00S
JOPLIN         CLEAR     72  67  84 S8        29.98S

$$
MOZ032>034-039>042-045>050-055>058-069>072-031000-
...CENTRAL MISSOURI...

CITY           SKY/WX    TMP DP  RH WIND       PRES   REMARKS
COLUMBIA       MOCLDY    72  68  87 S5        29.98F
JEFFERSON CITY PTCLDY    69  67  93 E6        29.97F
ROLLA          CLEAR     70  67  90 S8        30.00S
SEDALIA        MOCLDY    73  68  84 S8        29.98S
WHITEMAN AFB   MOCLDY    72  68  87 S6        29.95S
WARRENSBURG    MOCLDY    72  68  88 S6        29.95S
OSAGE BEACH    CLEAR     68  64  88 SE3       30.00S

$$
MOZ051-052-059>065-031000-
...EAST CENTRAL MISSOURI...

CITY           SKY/WX    TMP DP  RH WIND       PRES   REMARKS
ST LOUIS INTL  CLEAR     77  69  76 CALM      29.99S
SPIRIT OF STL  PTCLDY    70  70 100 CALM      29.98S FOG
ST CHARLES     CLEAR     70  69  97 E3        29.97S

$$
MOZ072>076-082>087-097>100-106>115-031000-
...SOUTH CENTRAL AND SOUTHEAST MISSOURI...

CITY           SKY/WX    TMP DP  RH WIND       PRES   REMARKS
CAPE GIRARDEAU CLEAR     68  66  93 CALM      30.00S FOG
FARMINGTON     CLEAR     70  68  94 CALM      30.05R
POPLAR BLUFF   FOG       68  67  96 CALM      29.99S VSB 1/2
WEST PLAINS    CLEAR     67  64  90 CALM      30.05R FOG

$$


USA.gov is the U.S. government's official web portal to all federal, state and local government web resources and services.